QPF
0.05 0.08 0.07 0.04 0.02 0.00 0.00 0.00 0.00 0.00 0.00 0.00 0.00 0.00 0.00 0.00 0.00 0.00 0.00 0.00 0.00 0.00 0.00 0.00 0.00 0.00 0.00 0.00 0.00 0.00 0.00 0.00 0.00 0.00 0.00 0.00 0.00 0.00 0.00 0.00 0.00 0.00
0.03 0.04 0.04 0.04 0.01 0.00 0.00 0.00 0.00 0.00 0.00 0.00 0.00 0.00 0.00 0.00 0.00 0.00 0.00 0.00 0.00 0.00 0.00 0.00 0.00 0.00 0.00 0.00 0.00 0.00 0.00 0.00 0.00 0.00 0.00 0.00 0.00 0.00 0.00 0.00 0.00 0.00
0.06 0.01 0.04 0.00 0.00 0.00 0.00 0.00 0.00 0.00 0.00 0.00 0.00 0.00 0.00 0.00 0.00 0.00 0.00 0.00 0.00 0.00 0.00 0.00 0.00 0.00 0.00 0.00 0.00 0.00 0.00 0.00 0.00 0.00 0.00 0.00 0.00 0.00 0.00 0.00 0.00 0.00
0.07 0.09 0.01 0.00 0.00 0.00 0.00 0.00 0.00 0.00 0.00 0.00 0.00 0.00 0.00 0.00 0.00 0.00 0.00 0.00 0.00 0.00 0.00 0.00 0.00 0.00 0.00 0.00 0.00 0.00 0.00 0.00 0.00 0.00 0.00 0.00 0.00 0.00 0.00 0.00 0.00 0.00
0.01 0.00 0.00 0.00 0.00 0.00 0.00 0.00 0.00 0.00 0.00 0.00 0.00 0.00 0.00 0.00 0.00 0.00 0.00 0.00 0.00 0.00 0.00 0.00 0.00 0.00 0.00 0.00 0.00 0.00 0.00 0.00 0.00 0.00 0.00 0.00 0.00 0.00 0.00 0.00 0.00 0.00
0.01 0.03 0.00 0.00 0.00 0.00 0.00 0.00 0.00 0.00 0.00 0.00 0.00 0.00 0.00 0.00 0.00 0.00 0.00 0.00 0.00 0.00 0.00 0.00 0.00 0.00 0.00 0.00 0.00 0.00 0.00 0.00 0.00 0.00 0.00 0.00 0.00 0.00 0.00 0.00 0.00 0.00
0.00 0.00 0.00 0.00 0.00 0.00 0.00 0.00 0.00 0.00 0.00 0.00 0.00 0.00 0.00 0.00 0.00 0.00 0.00 0.00 0.00 0.00 0.00 0.00 0.00 0.00 0.00 0.00 0.00 0.00 0.00 0.00 0.00 0.00 0.00 0.00 0.00 0.00 0.00 0.00 0.00 0.00
0.00 0.00 0.00 0.00 0.00 0.00 0.00 0.00 0.00 0.00 0.00 0.00 0.00 0.00 0.00 0.00 0.00 0.00 0.00 0.00 0.00 0.00 0.00 0.00 0.00 0.00 0.00 0.00 0.00 0.00 0.00 0.00 0.00 0.00 0.00 0.00 0.00 0.00 0.00 0.00 0.00 0.00
0.00 0.00 0.00 0.00 0.00 0.00 0.00 0.00 0.00 0.00 0.00 0.00 0.00 0.00 0.00 0.00 0.00 0.00 0.00 0.00 0.00 0.00 0.00 0.00 0.00 0.00 0.00 0.00 0.00 0.00 0.00 0.00 0.00 0.00 0.00 0.00 0.00 0.00 0.00 0.00 0.00 0.00
0.00 0.00 0.00 0.00 0.00 0.00 0.00 0.00 0.00 0.00 0.00 0.00 0.00 0.00 0.00 0.00 0.00 0.00 0.00 0.00 0.00 0.00 0.00 0.00 0.00 0.00 0.00 0.00 0.00 0.00 0.00 0.00 0.00 0.00 0.00 0.00 0.00 0.00 0.00 0.00 0.00 0.00
0.00 0.00 0.00 0.00 0.00 0.00 0.00 0.00 0.00 0.00 0.00 0.00 0.00 0.00 0.00 0.00 0.00 0.00 0.00 0.00 0.00 0.00 0.00 0.00 0.00 0.00 0.00 0.00 0.00 0.00 0.00 0.00 0.00 0.00 0.00 0.00 0.00 0.00 0.00 0.00 0.00 0.00
0.00 0.00 0.00 0.00 0.00 0.00 0.00 0.00 0.00 0.00 0.00 0.00 0.00 0.00 0.00 0.00 0.00 0.00 0.00 0.00 0.00 0.00 0.00 0.00 0.00 0.00 0.00 0.00 0.00 0.00 0.00 0.00 0.00 0.00 0.00 0.00 0.00 0.00 0.00 0.00 0.00 0.00
0.00 0.00 0.00 0.00 0.00 0.00 0.00 0.00 0.00 0.00 0.00 0.00 0.00 0.00 0.00 0.00 0.00 0.00 0.00 0.00 0.00 0.00 0.00 0.00 0.00 0.00 0.00 0.00 0.00 0.00 0.00 0.00 0.00 0.00 0.00 0.00 0.00 0.00 0.00 0.00 0.00 0.00
0.00 0.00 0.00 0.00 0.00 0.00 0.00 0.00 0.00 0.00 0.00 0.00 0.00 0.00 0.00 0.00 0.00 0.00 0.00 0.00 0.00 0.00 0.00 0.00 0.00 0.00 0.00 0.00 0.00 0.00 0.00 0.00 0.00 0.00 0.00 0.00 0.00 0.00 0.00 0.00 0.00 0.00
0.00 0.00 0.00 0.00 0.00 0.00 0.00 0.00 0.00 0.00 0.00 0.00 0.00 0.00 0.00 0.00 0.00 0.00 0.00 0.00 0.00 0.00 0.00 0.00 0.00 0.00 0.00 0.00 0.00 0.00 0.00 0.00 0.00 0.00 0.00 0.00 0.00 0.00 0.00 0.00 0.00 0.00
0.00 0.00 0.00 0.00 0.00 0.00 0.00 0.00 0.00 0.00 0.00 0.00 0.00 0.00 0.00 0.00 0.00 0.00 0.00 0.00 0.00 0.00 0.00 0.00 0.00 0.00 0.00 0.00 0.00 0.00 0.00 0.00 0.00 0.00 0.00 0.00 0.00 0.00 0.00 0.00 0.00 0.00
0.00 0.00 0.00 0.00 0.00 0.00 0.00 0.00 0.00 0.00 0.00 0.00 0.00 0.00 0.00 0.01 0.00 0.00 0.00 0.00 0.00 0.00 0.00 0.00 0.00 0.00 0.00 0.00 0.00 0.00 0.00 0.00 0.00 0.00 0.00 0.00 0.00 0.00 0.00 0.00 0.00 0.00
0.00 0.00 0.00 0.00 0.00 0.00 0.00 0.00 0.00 0.00 0.00 0.00 0.00 0.00 0.00 0.00 0.00 0.00 0.00 0.00 0.00 0.00 0.00 0.00 0.00 0.00 0.00 0.00 0.00 0.00 0.00 0.00 0.00 0.00 0.00 0.00 0.00 0.00 0.00 0.00 0.00 0.00
0.00 0.00 0.00 0.00 0.00 0.00 0.00 0.00 0.00 0.00 0.00 0.00 0.00 0.00 0.00 0.00 0.00 0.00 0.00 0.00 0.00 0.00 0.00 0.00 0.00 0.00 0.00 0.00 0.00 0.00 0.00 0.00 0.00 0.00 0.00 0.00 0.00 0.00 0.00 0.00 0.00 0.00
0.00 0.00 0.00 0.00 0.00 0.00 0.00 0.00 0.00 0.00 0.00 0.00 0.00 0.00 0.00 0.00 0.00 0.00 0.00 0.00 0.00 0.00 0.00 0.00 0.00 0.00 0.00 0.00 0.00 0.00 0.00 0.00 0.00 0.00 0.00 0.00 0.00 0.00 0.00 0.00 0.00 0.00
0.00 0.00 0.00 0.00 0.00 0.00 0.00 0.00 0.00 0.00 0.00 0.00 0.00 0.00 0.00 0.00 0.00 0.00 0.00 0.00 0.00 0.00 0.00 0.00 0.00 0.00 0.00 0.00 0.00 0.00 0.00 0.00 0.00 0.00 0.00 0.00 0.00 0.00 0.00 0.00 0.00 0.00
0.00 0.00 0.00 0.00 0.00 0.00 0.00 0.00 0.00 0.00 0.00 0.00 0.00 0.00 0.00 0.00 0.00 0.00 0.00 0.00 0.00 0.00 0.00 0.00 0.00 0.00 0.00 0.00 0.00 0.00 0.00 0.00 0.00 0.00 0.00 0.00 0.00 0.00 0.00 0.00 0.00 0.00
0.00 0.00 0.00 0.00 0.00 0.00 0.01 0.03 0.00 0.00 0.00 0.00 0.00 0.00 0.01 0.00 0.00 0.00 0.00 0.00 0.00 0.00 0.00 0.00 0.00 0.00 0.00 0.00 0.00 0.00 0.00 0.00 0.00 0.00 0.00 0.00 0.00 0.00 0.00 0.00 0.00 0.00
0.00 0.00 0.00 0.00 0.09 0.40 0.22 0.31 0.22 0.00 0.00 0.00 0.00 0.00 0.00 0.00 0.00 0.00 0.00 0.00 0.00 0.00 0.00 0.00 0.00 0.00 0.00 0.00 0.00 0.00 0.00 0.00 0.00 0.00 0.00 0.00 0.00 0.00 0.00 0.00 0.00 0.00
0.00 0.00 0.00 0.26 0.34 0.35 0.35 0.24 0.06 0.00 0.00 0.00 0.00 0.00 0.00 0.00 0.00 0.00 0.00 0.00 0.00 0.00 0.00 0.00 0.00 0.00 0.00 0.00 0.00 0.00 0.00 0.00 0.00 0.00 0.00 0.00 0.00 0.00 0.00 0.00 0.00 0.00
0.00 0.00 0.11 0.34 0.24 0.16 0.18 0.17 0.04 0.00 0.00 0.00 0.00 0.00 0.00 0.00 0.00 0.00 0.00 0.00 0.00 0.00 0.00 0.00 0.00 0.00 0.00 0.00 0.00 0.00 0.00 0.00 0.00 0.00 0.00 0.00 0.00 0.00 0.00 0.00 0.00 0.00
MSLP
1017.20 1017.60 1018.08 1018.40 1018.96 1019.24 1019.48 1019.72 1019.88 1020.00 1020.16 1020.24 1020.28 1020.48 1020.56 1020.68 1020.84 1020.96 1021.12 1021.20 1021.32 1021.52 1021.72 1021.84 1021.92 1022.08 1022.24 1022.32 1022.40 1022.52 1022.72 1022.92 1023.08 1023.24 1023.32 1023.32 1023.36 1023.36 1023.40 1023.40 1023.32 1023.32
1017.44 1017.68 1018.08 1018.44 1018.96 1019.32 1019.52 1019.60 1019.80 1019.92 1020.16 1020.28 1020.36 1020.48 1020.64 1020.76 1020.96 1021.00 1021.20 1021.40 1021.56 1021.80 1021.96 1022.08 1022.20 1022.36 1022.44 1022.56 1022.68 1022.80 1023.04 1023.16 1023.36 1023.52 1023.56 1023.52 1023.64 1023.56 1023.64 1023.64 1023.60 1023.56
1017.44 1017.80 1018.08 1018.40 1018.84 1019.24 1019.52 1019.68 1019.80 1019.96 1020.16 1020.36 1020.40 1020.56 1020.76 1020.92 1021.12 1021.28 1021.40 1021.52 1021.80 1022.04 1022.20 1022.32 1022.48 1022.56 1022.64 1022.76 1022.92 1023.08 1023.32 1023.44 1023.68 1023.80 1023.72 1023.84 1023.88 1023.84 1023.92 1023.84 1023.76 1023.72
1017.40 1017.68 1017.96 1018.36 1018.76 1019.20 1019.48 1019.72 1019.92 1020.08 1020.28 1020.32 1020.48 1020.68 1020.88 1021.12 1021.32 1021.48 1021.60 1021.72 1022.00 1022.28 1022.44 1022.56 1022.68 1022.76 1022.84 1023.00 1023.16 1023.44 1023.60 1023.76 1023.96 1024.00 1023.96 1024.00 1024.08 1024.08 1024.12 1024.04 1024.00 1023.96
1017.28 1017.64 1018.08 1018.44 1018.84 1019.12 1019.40 1019.64 1019.88 1020.08 1020.20 1020.32 1020.56 1020.76 1020.96 1021.20 1021.48 1021.68 1021.84 1022.00 1022.20 1022.48 1022.64 1022.80 1022.88 1023.00 1023.08 1023.24 1023.44 1023.68 1023.84 1024.08 1024.24 1024.20 1024.16 1024.28 1024.36 1024.28 1024.36 1024.20 1024.12 1024.12
1017.60 1017.88 1018.16 1018.44 1018.80 1019.12 1019.44 1019.64 1019.80 1020.00 1020.20 1020.36 1020.60 1020.84 1021.04 1021.28 1021.56 1021.80 1021.96 1022.16 1022.40 1022.60 1022.84 1022.96 1023.12 1023.24 1023.32 1023.52 1023.72 1023.96 1024.16 1024.32 1024.48 1024.40 1024.40 1024.52 1024.60 1024.60 1024.52 1024.44 1024.32 1024.36
1017.64 1017.96 1018.24 1018.52 1018.84 1019.12 1019.36 1019.64 1019.84 1020.00 1020.16 1020.40 1020.64 1020.88 1021.08 1021.40 1021.68 1021.92 1022.08 1022.24 1022.52 1022.72 1022.92 1023.12 1023.24 1023.44 1023.56 1023.72 1023.92 1024.20 1024.44 1024.56 1024.64 1024.60 1024.56 1024.72 1024.68 1024.76 1024.68 1024.56 1024.56 1024.60
1017.56 1017.88 1018.16 1018.48 1018.76 1019.12 1019.32 1019.60 1019.84 1020.00 1020.16 1020.40 1020.60 1020.96 1021.08 1021.48 1021.80 1022.04 1022.16 1022.36 1022.60 1022.88 1023.08 1023.24 1023.40 1023.56 1023.76 1023.88 1024.12 1024.36 1024.60 1024.76 1024.80 1024.80 1024.80 1024.88 1024.84 1024.88 1024.88 1024.84 1024.80 1024.76
1017.56 1017.88 1018.16 1018.44 1018.76 1019.04 1019.32 1019.60 1019.80 1020.00 1020.12 1020.32 1020.68 1021.00 1021.28 1021.52 1021.84 1022.08 1022.24 1022.44 1022.72 1023.00 1023.20 1023.44 1023.56 1023.76 1023.96 1024.08 1024.28 1024.48 1024.72 1024.96 1025.00 1024.96 1024.92 1024.92 1024.96 1025.04 1025.04 1025.00 1024.92 1025.00
1017.64 1017.92 1018.16 1018.40 1018.72 1019.00 1019.32 1019.60 1019.80 1020.00 1020.16 1020.40 1020.76 1021.08 1021.36 1021.80 1021.96 1022.12 1022.32 1022.52 1022.80 1023.12 1023.32 1023.52 1023.72 1023.92 1024.16 1024.32 1024.48 1024.64 1024.88 1025.12 1025.20 1025.16 1025.16 1025.16 1025.12 1025.12 1025.12 1025.12 1025.12 1025.08
1017.68 1017.88 1018.08 1018.40 1018.72 1019.08 1019.40 1019.64 1019.84 1020.04 1020.24 1020.48 1020.84 1021.20 1021.56 1021.84 1022.16 1022.28 1022.44 1022.60 1022.88 1023.16 1023.44 1023.64 1023.80 1024.04 1024.28 1024.52 1024.72 1024.88 1025.08 1025.28 1025.32 1025.32 1025.32 1025.28 1025.28 1025.32 1025.28 1025.24 1025.28 1025.36
1017.60 1017.84 1018.04 1018.36 1018.76 1019.12 1019.40 1019.64 1019.88 1020.08 1020.36 1020.64 1020.84 1021.28 1021.68 1021.92 1022.16 1022.44 1022.52 1022.76 1023.00 1023.24 1023.44 1023.72 1023.96 1024.16 1024.40 1024.60 1024.84 1025.04 1025.28 1025.44 1025.48 1025.44 1025.44 1025.36 1025.32 1025.36 1025.40 1025.40 1025.36 1025.40
1017.52 1017.76 1018.08 1018.48 1018.84 1019.16 1019.48 1019.72 1019.96 1020.16 1020.36 1020.72 1021.00 1021.24 1021.64 1022.00 1022.32 1022.52 1022.80 1022.88 1023.16 1023.36 1023.56 1023.80 1024.12 1024.36 1024.56 1024.76 1024.96 1025.20 1025.40 1025.48 1025.56 1025.56 1025.52 1025.44 1025.44 1025.44 1025.48 1025.52 1025.48 1025.44
1017.52 1017.84 1018.20 1018.60 1019.00 1019.28 1019.56 1019.88 1020.16 1020.36 1020.60 1020.84 1021.12 1021.40 1021.72 1022.00 1022.32 1022.60 1022.96 1023.12 1023.32 1023.52 1023.76 1023.92 1024.20 1024.48 1024.72 1024.88 1025.08 1025.32 1025.44 1025.60 1025.60 1025.60 1025.52 1025.52 1025.52 1025.56 1025.60 1025.56 1025.52 1025.44
1017.56 1017.92 1018.32 1018.72 1019.08 1019.44 1019.80 1020.12 1020.36 1020.60 1020.80 1021.04 1021.32 1021.60 1021.88 1022.16 1022.44 1022.64 1022.96 1023.32 1023.60 1023.72 1023.92 1024.16 1024.32 1024.52 1024.72 1024.88 1025.16 1025.44 1025.56 1025.60 1025.64 1025.60 1025.56 1025.60 1025.64 1025.68 1025.72 1025.68 1025.60 1025.52
1017.48 1017.92 1018.36 1018.76 1019.16 1019.56 1019.96 1020.28 1020.56 1020.80 1020.96 1021.24 1021.56 1021.80 1022.08 1022.36 1022.60 1022.84 1023.00 1023.24 1023.56 1023.92 1024.12 1024.28 1024.48 1024.60 1024.76 1024.88 1025.00 1025.24 1025.56 1025.68 1025.72 1025.72 1025.72 1025.68 1025.68 1025.76 1025.84 1025.84 1025.80 1025.72
1017.48 1018.00 1018.36 1018.80 1019.20 1019.68 1020.12 1020.44 1020.72 1020.92 1021.20 1021.48 1021.80 1022.04 1022.28 1022.48 1022.68 1022.92 1023.24 1023.40 1023.56 1023.84 1024.16 1024.44 1024.56 1024.68 1024.84 1025.00 1025.20 1025.32 1025.48 1025.64 1025.64 1025.84 1025.88 1025.84 1025.80 1025.76 1025.80 1025.84 1025.84 1025.92
1017.48 1017.92 1018.36 1018.88 1019.24 1019.68 1020.12 1020.48 1020.76 1021.00 1021.28 1021.64 1021.92 1022.24 1022.52 1022.68 1022.92 1023.16 1023.44 1023.64 1023.88 1024.08 1024.24 1024.48 1024.68 1024.84 1024.96 1025.16 1025.32 1025.44 1025.44 1025.64 1025.76 1025.84 1025.96 1025.96 1026.00 1025.92 1025.96 1025.88 1025.84 1025.92
1017.40 1017.88 1018.44 1018.88 1019.24 1019.64 1020.12 1020.48 1020.76 1021.08 1021.44 1021.72 1022.04 1022.36 1022.64 1022.88 1023.24 1023.48 1023.72 1023.92 1023.96 1024.16 1024.44 1024.68 1024.88 1025.08 1025.12 1025.24 1025.36 1025.48 1025.56 1025.64 1025.88 1025.92 1025.92 1026.04 1026.08 1026.04 1026.00 1026.00 1026.00 1025.88
1017.32 1017.80 1018.32 1018.76 1019.16 1019.60 1020.00 1020.36 1020.72 1021.16 1021.52 1021.84 1022.16 1022.52 1022.80 1023.20 1023.52 1023.68 1023.92 1024.04 1024.16 1024.32 1024.60 1024.88 1025.04 1025.24 1025.24 1025.28 1025.40 1025.52 1025.64 1025.72 1025.96 1026.04 1026.12 1026.16 1026.20 1026.20 1026.20 1026.20 1026.12 1025.80
1017.24 1017.60 1018.12 1018.68 1019.16 1019.64 1020.04 1020.36 1020.72 1021.24 1021.56 1021.88 1022.16 1022.44 1022.80 1023.12 1023.44 1023.76 1024.00 1024.20 1024.40 1024.56 1024.64 1024.96 1025.16 1025.28 1025.28 1025.28 1025.44 1025.60 1025.72 1025.84 1026.08 1026.16 1026.20 1026.28 1026.36 1026.36 1026.36 1026.32 1026.28 1026.24
1017.04 1017.64 1018.20 1018.84 1019.44 1019.92 1020.24 1020.64 1020.92 1021.20 1021.68 1022.12 1022.44 1022.88 1023.20 1023.44 1023.76 1023.88 1024.08 1024.40 1024.60 1024.60 1024.72 1025.04 1025.32 1025.40 1025.32 1025.32 1025.48 1025.68 1025.80 1025.96 1026.08 1026.08 1026.12 1026.24 1026.28 1026.36 1026.36 1026.40 1026.44 1026.40
1017.04 1017.64 1018.40 1019.16 1019.84 1020.48 1021.00 1021.28 1021.48 1021.88 1022.16 1022.36 1022.72 1023.08 1023.28 1023.56 1023.72 1023.96 1024.20 1024.36 1024.60 1024.68 1024.76 1025.12 1025.36 1025.44 1025.32 1025.36 1025.56 1025.72 1025.80 1026.04 1026.04 1026.12 1026.20 1026.20 1026.36 1026.44 1026.40 1026.40 1026.44 1026.56
1017.08 1017.76 1018.60 1019.36 1020.04 1020.72 1021.52 1022.12 1022.24 1022.24 1022.44 1022.60 1022.68 1023.08 1023.44 1023.68 1023.84 1024.12 1024.40 1024.44 1024.48 1024.68 1024.72 1024.88 1025.28 1025.44 1025.36 1025.44 1025.60 1025.72 1025.68 1025.88 1025.96 1026.04 1026.24 1026.32 1026.48 1026.56 1026.52 1026.48 1026.48 1026.52
1017.12 1017.76 1018.24 1018.56 1018.64 1018.96 1019.48 1020.08 1020.92 1021.76 1022.32 1022.64 1022.92 1023.08 1023.48 1023.88 1024.04 1024.16 1024.48 1024.68 1024.68 1024.64 1024.76 1024.88 1025.16 1025.36 1025.44 1025.52 1025.64 1025.76 1025.84 1025.96 1025.96 1026.00 1026.08 1026.28 1026.28 1026.44 1026.60 1026.60 1026.64 1026.72
1017.08 1017.48 1017.80 1018.12 1018.84 1019.52 1020.00 1020.68 1021.28 1021.76 1022.24 1022.56 1022.96 1023.24 1023.60 1023.96 1024.16 1024.28 1024.40 1024.68 1024.76 1024.68 1024.80 1025.00 1025.08 1025.36 1025.56 1025.64 1025.68 1025.80 1025.84 1025.88 1025.92 1025.80 1026.00 1026.16 1026.16 1026.12 1026.24 1026.56 1026.68 1026.80
Thickness
5653 5651 5648 5646 5642 5640 5639 5639 5640 5639 5639 5639 5638 5637 5637 5636 5637 5637 5636 5635 5635 5633 5631 5629 5628 5627 5625 5623 5622 5620 5618 5615 5613 5610 5609 5607 5605 5603 5602 5600 5599 5598
5650 5648 5646 5644 5640 5638 5638 5637 5638 5638 5636 5636 5636 5635 5634 5634 5634 5634 5634 5633 5631 5629 5627 5626 5624 5623 5622 5620 5618 5616 5614 5611 5608 5606 5604 5603 5601 5600 5598 5596 5595 5594
5648 5646 5645 5643 5640 5637 5636 5636 5636 5635 5634 5633 5633 5633 5632 5632 5632 5631 5631 5630 5628 5625 5623 5622 5620 5620 5619 5617 5615 5612 5609 5607 5604 5602 5601 5599 5597 5596 5594 5592 5591 5590
5646 5645 5644 5641 5639 5637 5635 5634 5634 5633 5633 5632 5631 5630 5630 5629 5628 5628 5628 5626 5624 5622 5619 5618 5617 5616 5616 5614 5611 5608 5606 5603 5599 5598 5597 5595 5593 5592 5590 5589 5587 5586
5645 5643 5642 5639 5637 5635 5633 5633 5632 5631 5631 5630 5629 5628 5627 5627 5626 5625 5624 5622 5621 5618 5616 5615 5614 5613 5612 5610 5607 5604 5601 5598 5595 5594 5593 5591 5589 5587 5586 5585 5583 5581
5642 5640 5638 5637 5635 5633 5632 5632 5631 5630 5629 5628 5627 5626 5625 5624 5623 5622 5621 5619 5617 5615 5613 5611 5610 5609 5608 5606 5603 5599 5596 5594 5591 5590 5589 5587 5585 5583 5581 5581 5578 5576
5639 5637 5636 5635 5633 5632 5631 5630 5629 5628 5628 5627 5625 5624 5623 5622 5620 5619 5618 5616 5614 5612 5610 5608 5607 5606 5604 5602 5599 5595 5592 5590 5587 5586 5585 5583 5581 5579 5577 5575 5574 5572
5638 5636 5635 5633 5632 5631 5630 5629 5628 5627 5626 5626 5624 5622 5621 5619 5618 5616 5615 5614 5611 5609 5606 5605 5604 5602 5600 5599 5596 5592 5588 5586 5584 5583 5581 5579 5577 5574 5572 5571 5569 5567
5637 5635 5634 5633 5631 5631 5629 5628 5626 5625 5625 5624 5622 5621 5619 5617 5615 5614 5612 5611 5608 5606 5604 5602 5600 5598 5596 5594 5592 5589 5585 5582 5580 5579 5577 5576 5573 5570 5568 5567 5565 5564
5635 5634 5633 5633 5631 5629 5628 5626 5625 5624 5623 5622 5620 5618 5616 5614 5612 5611 5610 5608 5606 5603 5601 5599 5597 5595 5592 5590 5588 5585 5582 5578 5577 5575 5574 5572 5570 5567 5565 5563 5562 5559
5634 5633 5632 5631 5629 5627 5626 5624 5623 5622 5621 5620 5618 5616 5613 5611 5609 5607 5607 5606 5603 5601 5598 5596 5594 5592 5589 5587 5584 5582 5579 5576 5573 5572 5571 5568 5566 5564 5562 5560 5558 5557
5633 5632 5631 5629 5627 5625 5624 5622 5621 5620 5619 5618 5616 5613 5611 5608 5606 5605 5603 5602 5600 5598 5596 5593 5591 5588 5586 5583 5580 5577 5575 5572 5570 5569 5567 5565 5563 5561 5559 5557 5555 5554
5631 5630 5629 5628 5625 5624 5622 5620 5619 5618 5617 5615 5613 5611 5609 5606 5604 5602 5600 5599 5597 5595 5593 5591 5588 5585 5582 5580 5577 5574 5572 5569 5567 5565 5564 5562 5560 5558 5556 5554 5553 5551
5630 5629 5627 5625 5623 5622 5619 5617 5616 5615 5614 5612 5610 5609 5607 5604 5602 5599 5597 5596 5594 5592 5590 5587 5585 5582 5579 5576 5573 5570 5568 5566 5564 5563 5561 5558 5557 5555 5553 5551 5550 5549
5628 5627 5625 5622 5620 5618 5616 5614 5612 5611 5610 5608 5607 5606 5604 5601 5600 5598 5596 5593 5591 5589 5586 5584 5582 5579 5576 5574 5571 5568 5565 5563 5561 5560 5558 5556 5553 5551 5550 5549 5548 5546
5627 5625 5623 5620 5617 5615 5612 5610 5609 5608 5607 5605 5603 5602 5600 5598 5597 5595 5593 5591 5589 5586 5583 5580 5578 5575 5573 5571 5569 5566 5563 5561 5558 5557 5554 5552 5551 5549 5547 5546 5545 5543
5625 5622 5620 5617 5615 5611 5609 5607 5606 5604 5603 5601 5600 5598 5596 5595 5594 5591 5589 5588 5586 5583 5580 5577 5574 5572 5570 5568 5565 5564 5561 5558 5556 5554 5551 5549 5547 5546 5544 5543 5542 5540
5622 5620 5617 5614 5612 5609 5606 5604 5603 5601 5600 5598 5596 5594 5592 5591 5590 5587 5585 5584 5582 5579 5576 5574 5571 5569 5567 5565 5562 5560 5558 5556 5553 5550 5548 5545 5544 5542 5541 5540 5539 5537
5620 5617 5614 5612 5609 5607 5604 5602 5600 5598 5596 5594 5592 5590 5589 5587 5584 5583 5581 5579 5578 5575 5573 5571 5568 5565 5564 5561 5559 5557 5555 5552 5550 5547 5545 5543 5541 5540 5539 5537 5536 5535
5618 5616 5613 5610 5608 5605 5602 5600 5597 5595 5593 5592 5590 5587 5585 5582 5580 5579 5577 5575 5574 5572 5570 5567 5564 5562 5560 5559 5556 5554 5552 5549 5546 5544 5542 5539 5538 5536 5535 5534 5533 5532
5616 5614 5611 5608 5604 5601 5598 5596 5595 5593 5591 5588 5586 5584 5581 5579 5577 5575 5573 5571 5569 5568 5566 5563 5561 5559 5558 5556 5553 5551 5548 5546 5543 5540 5538 5536 5534 5533 5532 5531 5530 5529
5614 5611 5607 5603 5598 5595 5592 5591 5590 5588 5586 5584 5581 5578 5576 5574 5572 5571 5569 5567 5565 5564 5563 5560 5557 5555 5554 5553 5550 5548 5545 5542 5540 5537 5535 5533 5532 5531 5529 5529 5527 5525
5611 5607 5602 5595 5590 5586 5582 5580 5580 5580 5579 5578 5576 5573 5571 5570 5568 5567 5565 5564 5562 5561 5560 5557 5553 5552 5551 5550 5547 5544 5542 5539 5536 5535 5533 5530 5529 5528 5527 5526 5524 5522
5607 5602 5597 5591 5588 5586 5581 5577 5575 5574 5574 5573 5572 5570 5568 5566 5565 5563 5561 5560 5560 5558 5556 5555 5551 5549 5548 5546 5543 5541 5539 5536 5534 5532 5530 5527 5526 5524 5523 5523 5521 5519
5603 5600 5597 5595 5594 5593 5590 5585 5579 5576 5573 5570 5568 5567 5564 5562 5561 5559 5557 5556 5555 5555 5553 5552 5549 5546 5544 5542 5539 5537 5535 5533 5531 5529 5527 5525 5524 5522 5520 5519 5517 5515
5601 5600 5598 5594 5590 5587 5585 5581 5577 5573 5571 5568 5566 5564 5561 5559 5557 5556 5554 5552 5551 5551 5550 5548 5546 5543 5540 5538 5536 5534 5531 5530 5528 5527 5525 5523 5521 5520 5518 5516 5513 5511